When you browse on this site, cookies collect data to enhance your experience and personalize the content and advertising you see.
Visit our Privacy Policy to learn more. By continuing to use the site, you agree to this use of cookies and data.
  • In Romania
  • List of Countries
  • For 7 days
  • Water Temperature
  • Weather Map
  • Weather Widgets
  • user-avatar
    Login

    Hourly Weather San Luis

    Today, 23 January, Thursday

    Time Temperature Precipitation Wind Pressure Humidity
    00:00 +26°C° 0 mm 6 mps 698 mmHg 42%
    01:00 +26°C° 0 mm 5 mps 698 mmHg 44%
    02:00 +25°C° 0 mm 4 mps 698 mmHg 47%
    03:00 +25°C° 0 mm 5 mps 698 mmHg 47%
    04:00 +25°C° 0 mm 5 mps 698 mmHg 48%
    05:00 +24°C° 0 mm 6 mps 698 mmHg 48%
    06:00 +26°C° 0 mm 6 mps 698 mmHg 45%
    07:00 +28°C° 0 mm 7 mps 698 mmHg 42%
    08:00 +29°C° 0 mm 7 mps 699 mmHg 39%
    09:00 +32°C° 0 mm 7 mps 699 mmHg 36%
    10:00 +33°C° 0 mm 7 mps 699 mmHg 32%
    11:00 +35°C° 0 mm 7 mps 699 mmHg 29%
    12:00 +36°C° 0 mm 7 mps 698 mmHg 27%
    13:00 +38°C° 0 mm 7 mps 698 mmHg 25%
    14:00 +39°C° 0 mm 6 mps 697 mmHg 23%
    15:00 +39°C° 0 mm 6 mps 697 mmHg 23%
    16:00 +39°C° 0 mm 6 mps 696 mmHg 23%
    17:00 +39°C° 0 mm 6 mps 695 mmHg 22%
    18:00 +35°C° 0 mm 5 mps 695 mmHg 25%
    19:00 +33°C° 0 mm 4 mps 695 mmHg 28%
    20:00 +30°C° 0 mm 4 mps 695 mmHg 31%
    21:00 +29°C° 0 mm 4 mps 696 mmHg 31%
    22:00 +29°C° 0 mm 4 mps 696 mmHg 32%
    23:00 +28°C° 0 mm 5 mps 696 mmHg 33%

    Tomorrow, 24 January, Friday

    Time Temperature Precipitation Wind Pressure Humidity
    00:00 +28°C° 0 mm 6 mps 696 mmHg 33%
    01:00 +28°C° 0 mm 6 mps 697 mmHg 33%
    02:00 +28°C° 0 mm 7 mps 697 mmHg 33%
    03:00 +28°C° 0 mm 6 mps 697 mmHg 34%
    04:00 +27°C° 0 mm 6 mps 697 mmHg 36%
    05:00 +27°C° 0 mm 5 mps 697 mmHg 38%
    06:00 +27°C° 0 mm 5 mps 698 mmHg 38%
    07:00 +28°C° 0 mm 4 mps 699 mmHg 38%
    08:00 +28°C° 0 mm 4 mps 699 mmHg 39%
    09:00 +30°C° 0 mm 4 mps 699 mmHg 35%
    10:00 +33°C° 0 mm 4 mps 699 mmHg 32%
    11:00 +34°C° 0 mm 5 mps 700 mmHg 28%
    12:00 +35°C° 0 mm 4 mps 699 mmHg 27%
    13:00 +36°C° 0 mm 4 mps 698 mmHg 25%
    14:00 +37°C° 0 mm 3 mps 698 mmHg 23%
    15:00 +37°C° 0 mm 3 mps 697 mmHg 22%
    16:00 +38°C° 0 mm 3 mps 696 mmHg 21%
    17:00 +38°C° 0 mm 3 mps 696 mmHg 20%
    18:00 +36°C° 0 mm 3 mps 696 mmHg 23%
    19:00 +32°C° 0 mm 2 mps 695 mmHg 26%
    20:00 +30°C° 0 mm 2 mps 695 mmHg 29%
    21:00 +29°C° 0 mm 2 mps 695 mmHg 30%
    22:00 +28°C° 0 mm 2 mps 695 mmHg 31%
    23:00 +27°C° 0 mm 2 mps 696 mmHg 32%

    Day after tomorrow, 25 January, Saturday

    Time Temperature Precipitation Wind Pressure Humidity
    00:00 +27°C° 0 mm 2 mps 695 mmHg 32%
    01:00 +27°C° 0 mm 3 mps 695 mmHg 31%
    02:00 +27°C° 0 mm 3 mps 695 mmHg 30%
    03:00 +26°C° 0 mm 3 mps 695 mmHg 30%
    04:00 +26°C° 0 mm 3 mps 695 mmHg 30%
    05:00 +26°C° 0 mm 3 mps 696 mmHg 30%
    06:00 +28°C° 0 mm 3 mps 696 mmHg 29%
    07:00 +30°C° 0 mm 2 mps 697 mmHg 27%
    08:00 +31°C° 0 mm 2 mps 698 mmHg 26%
    09:00 +34°C° 0 mm 2 mps 698 mmHg 24%
    10:00 +35°C° 0 mm 2 mps 698 mmHg 23%
    11:00 +36°C° 0 mm 2 mps 698 mmHg 22%
    12:00 +37°C° 0 mm 2 mps 698 mmHg 21%
    13:00 +38°C° 0 mm 2 mps 697 mmHg 19%
    14:00 +39°C° 0 mm 2 mps 697 mmHg 18%
    15:00 +39°C° 0 mm 3 mps 696 mmHg 17%
    16:00 +39°C° 0 mm 3 mps 695 mmHg 17%
    17:00 +40°C° 0 mm 4 mps 695 mmHg 16%
    18:00 +37°C° 0 mm 4 mps 695 mmHg 18%
    19:00 +34°C° 0 mm 5 mps 695 mmHg 20%
    20:00 +32°C° 0 mm 5 mps 695 mmHg 22%
    21:00 +30°C° 0 mm 5 mps 695 mmHg 23%
    22:00 +29°C° 0 mm 5 mps 695 mmHg 24%
    23:00 +28°C° 0 mm 5 mps 696 mmHg 24%

    26 January, Sunday

    Time Temperature Precipitation Wind Pressure Humidity
    00:00 +28°C° 0 mm 5 mps 695 mmHg 24%
    01:00 +28°C° 0 mm 6 mps 695 mmHg 24%
    02:00 +28°C° 0 mm 6 mps 695 mmHg 25%
    03:00 +27°C° 0 mm 5 mps 695 mmHg 25%
    04:00 +27°C° 0 mm 5 mps 695 mmHg 25%
    05:00 +27°C° 0 mm 5 mps 695 mmHg 25%
    06:00 +28°C° 0 mm 4 mps 695 mmHg 24%
    07:00 +30°C° 0 mm 3 mps 696 mmHg 23%
    08:00 +31°C° 0 mm 2 mps 697 mmHg 22%
    09:00 +32°C° 0 mm 2 mps 697 mmHg 22%
    10:00 +34°C° 0 mm 2 mps 697 mmHg 22%
    11:00 +34°C° 0 mm 2 mps 697 mmHg 22%
    12:00 +35°C° 0.1 mm 3 mps 697 mmHg 22%
    13:00 +36°C° 0.1 mm 3 mps 697 mmHg 21%
    14:00 +36°C° 0.1 mm 4 mps 697 mmHg 21%
    15:00 +36°C° 0.1 mm 5 mps 696 mmHg 22%
    16:00 +36°C° 0.1 mm 5 mps 696 mmHg 23%
    17:00 +35°C° 0.1 mm 6 mps 696 mmHg 24%
    18:00 +33°C° 0 mm 5 mps 696 mmHg 27%
    19:00 +30°C° 0 mm 5 mps 696 mmHg 30%
    20:00 +28°C° 0 mm 5 mps 696 mmHg 34%
    21:00 +28°C° 0 mm 4 mps 697 mmHg 35%
    22:00 +27°C° 0 mm 4 mps 698 mmHg 36%
    23:00 +26°C° 0 mm 4 mps 698 mmHg 38%

    27 January, Monday

    Time Temperature Precipitation Wind Pressure Humidity
    00:00 +26°C° 0 mm 4 mps 698 mmHg 35%
    01:00 +26°C° 0 mm 5 mps 698 mmHg 33%
    02:00 +26°C° 0 mm 5 mps 698 mmHg 31%
    03:00 +25°C° 0 mm 5 mps 698 mmHg 31%
    04:00 +25°C° 0 mm 5 mps 699 mmHg 31%
    05:00 +25°C° 0 mm 5 mps 699 mmHg 30%
    06:00 +26°C° 0 mm 5 mps 699 mmHg 31%
    07:00 +27°C° 0 mm 4 mps 700 mmHg 31%
    08:00 +28°C° 0 mm 4 mps 700 mmHg 31%
    09:00 +30°C° 0 mm 4 mps 700 mmHg 30%
    10:00 +32°C° 0 mm 4 mps 701 mmHg 28%
    11:00 +34°C° 0 mm 4 mps 701 mmHg 26%
    12:00 +35°C° 0 mm 4 mps 700 mmHg 27%
    13:00 +35°C° 0 mm 5 mps 699 mmHg 27%
    14:00 +35°C° 0 mm 6 mps 699 mmHg 28%
    15:00 +35°C° 0 mm 6 mps 698 mmHg 30%
    16:00 +34°C° 0 mm 6 mps 698 mmHg 32%
    17:00 +34°C° 0 mm 7 mps 697 mmHg 34%
    18:00 +32°C° 0 mm 7 mps 697 mmHg 38%
    19:00 +29°C° 0 mm 6 mps 697 mmHg 43%
    20:00 +27°C° 0 mm 6 mps 697 mmHg 48%
    21:00 +26°C° 0 mm 6 mps 697 mmHg 51%
    22:00 +24°C° 0 mm 6 mps 697 mmHg 54%
    23:00 +23°C° 0 mm 6 mps 697 mmHg 57%

    28 January, Tuesday

    Time Temperature Precipitation Wind Pressure Humidity
    00:00 +23°C° 0 mm 5 mps 697 mmHg 57%
    01:00 +22°C° 0 mm 5 mps 697 mmHg 57%
    02:00 +22°C° 0 mm 4 mps 696 mmHg 58%
    03:00 +22°C° 0 mm 4 mps 696 mmHg 58%
    04:00 +22°C° 0 mm 4 mps 696 mmHg 58%
    05:00 +22°C° 0 mm 4 mps 696 mmHg 58%
    06:00 +23°C° 0 mm 6 mps 697 mmHg 53%
    07:00 +26°C° 0 mm 7 mps 697 mmHg 49%
    08:00 +28°C° 0 mm 8 mps 697 mmHg 44%
    09:00 +29°C° 0 mm 8 mps 697 mmHg 41%
    10:00 +30°C° 0 mm 7 mps 697 mmHg 38%
    11:00 +33°C° 0 mm 7 mps 697 mmHg 34%
    12:00 +34°C° 0 mm 6 mps 696 mmHg 32%
    13:00 +35°C° 0 mm 5 mps 696 mmHg 30%
    14:00 +36°C° 0 mm 4 mps 695 mmHg 27%
    15:00 +36°C° 0 mm 3 mps 694 mmHg 28%
    16:00 +35°C° 0 mm 3 mps 694 mmHg 28%
    17:00 +35°C° 0 mm 3 mps 693 mmHg 29%
    18:00 +33°C° 0 mm 3 mps 693 mmHg 33%
    19:00 +30°C° 0 mm 3 mps 692 mmHg 38%
    20:00 +28°C° 0 mm 3 mps 692 mmHg 42%
    21:00 +28°C° 0 mm 5 mps 692 mmHg 46%
    22:00 +27°C° 0 mm 6 mps 693 mmHg 50%
    23:00 +26°C° 0 mm 7 mps 693 mmHg 54%
    Show more